Language: 


Des rapports , des résumés tant et plus, au choix de chacun....


Données Historiques de Météogheer
Journalier Rapport pour Janvier 31, 2018 Unitée:  Impériale    Métrique   Les deux
Suivant Jour »
Journalier Hebdomadaire Mensuel Annuel Sur mesure
  Max: Min: Moyenne:
Température: 50.2 °F 35.2 °F 46 °F
Point de rosée: 50 °F 32 °F 45.1 °F
Humidité: 98% 81% 95%
Vent: 33.3mph 0mph 11.1mph
Rafales: 33.3mph - -
Vent- - WSW
Pression: 30.1 in 29.6 in -
Pluie: 0.33 in    
Historical Graphs
 
 
Données tabulaires pour Janvier 31, 2018
Heure Température Point de rosée Pression Vent Vent Rafales Humidité Pluie Taux (Horaire) Conditions
00:00 48.7 °F 48.2 °F 30.1 in SSW 6 mph 10.3 mph 98% 0 in
00:05 48.7 °F 48.2 °F 30.1 in SW 5.6 mph 10.3 mph 98% 0 in
00:10 48.9 °F 48.2 °F 30.1 in SSW 7.8 mph 8.7 mph 98% 0 in
00:15 48.9 °F 48.2 °F 30 in SW 7.4 mph 8.7 mph 98% 0 in
00:20 48.9 °F 48.2 °F 30 in SW 7.6 mph 10.1 mph 98% 0 in
00:25 49.1 °F 50 °F 30 in SW 8.7 mph 11 mph 98% 0 in
00:30 49.3 °F 50 °F 30 in South 5.6 mph 11 mph 98% 0 in
00:35 49.3 °F 50 °F 30 in SSW 6.3 mph 11 mph 98% 0 in
00:40 49.5 °F 50 °F 30 in WSW 8.7 mph 12.5 mph 98% 0 in
00:45 49.6 °F 50 °F 30 in WSW 8.1 mph 13 mph 98% 0 in
00:50 49.6 °F 50 °F 30 in SW 9.8 mph 13 mph 98% 0 in
00:56 49.8 °F 50 °F 30 in SW 12.5 mph 13 mph 98% 0 in
01:01 49.8 °F 50 °F 30 in SW 10.5 mph 14.5 mph 98% 0 in
01:06 50 °F 50 °F 30 in WSW 10.3 mph 15.7 mph 98% 0 in
01:11 50 °F 50 °F 30 in WSW 9.2 mph 15.7 mph 98% 0 in
01:16 50 °F 50 °F 30 in SW 12.5 mph 14.3 mph 98% 0 in
01:21 50 °F 50 °F 30 in SW 10.3 mph 14.3 mph 98% 0 in
01:26 50 °F 50 °F 30 in WSW 11 mph 14.1 mph 98% 0 in
01:31 50 °F 50 °F 30 in WSW 13.4 mph 16.1 mph 98% 0 in
01:36 50 °F 50 °F 30 in WSW 13 mph 16.1 mph 98% 0 in
01:41 50 °F 50 °F 30 in WSW 8.7 mph 14.3 mph 98% 0 in
01:46 50 °F 50 °F 30 in WSW 7.6 mph 14.8 mph 98% 0 in
01:51 50.2 °F 50 °F 30 in WSW 11.2 mph 16.8 mph 98% 0 in
01:56 50.2 °F 50 °F 30 in WSW 13 mph 16.8 mph 98% 0 in
02:01 50.2 °F 50 °F 29.9 in WSW 8.1 mph 15.4 mph 98% 0 in
02:06 50.2 °F 50 °F 29.9 in WSW 12.3 mph 15.4 mph 98% 0.01 in
02:11 50.2 °F 50 °F 29.9 in WSW 10.5 mph 17 mph 98% 0.01 in
02:16 50.2 °F 50 °F 30 in WSW 10.3 mph 17.4 mph 98% 0.01 in
02:21 50.2 °F 50 °F 30 in SSW 12.3 mph 17.7 mph 98% 0.01 in
02:26 50.2 °F 50 °F 30 in West 10.7 mph 19.5 mph 98% 0.01 in
02:31 50.2 °F 50 °F 30 in WSW 13.2 mph 19.5 mph 98% 0.01 in
02:36 50.2 °F 50 °F 30 in WSW 14.5 mph 19.2 mph 98% 0.01 in
02:41 50 °F 50 °F 30 in WSW 10.5 mph 17.7 mph 98% 0.01 in
02:46 50 °F 50 °F 30 in WSW 12.5 mph 22.4 mph 98% 0.01 in
02:51 50 °F 50 °F 30 in SW 12.8 mph 22.4 mph 98% 0.01 in
02:56 50 °F 50 °F 30 in WSW 10.7 mph 19.5 mph 98% 0.01 in
03:01 49.8 °F 50 °F 29.9 in WSW 10.3 mph 17.4 mph 98% 0.01 in
03:06 49.8 °F 50 °F 29.9 in WSW 12.5 mph 17.4 mph 98% 0 in
03:11 49.8 °F 50 °F 29.9 in SSW 12.3 mph 19.7 mph 98% 0 in
03:16 49.8 °F 50 °F 29.9 in WSW 19 mph 19.7 mph 98% 0 in
03:21 49.8 °F 50 °F 29.9 in WSW 12.3 mph 19.5 mph 98% 0 in
03:27 49.8 °F 50 °F 29.9 in WSW 17 mph 19.5 mph 98% 0 in
03:32 49.8 °F 50 °F 29.9 in SW 11 mph 19.9 mph 98% 0 in
03:37 49.8 °F 50 °F 29.9 in WSW 12.5 mph 19.9 mph 98% 0 in
03:42 49.8 °F 50 °F 29.9 in SW 13 mph 17.4 mph 98% 0.01 in
03:47 49.8 °F 50 °F 29.9 in WSW 9.4 mph 16.3 mph 98% 0.01 in
03:52 49.6 °F 50 °F 29.9 in SSW 14.3 mph 15.4 mph 98% 0.01 in
03:57 49.6 °F 50 °F 29.9 in WSW 14.8 mph 19.7 mph 98% 0.01 in
04:02 49.8 °F 50 °F 29.9 in SSW 13 mph 19.9 mph 98% 0.01 in
04:07 49.8 °F 50 °F 29.9 in WSW 10.1 mph 22.8 mph 98% 0.01 in
04:12 49.8 °F 50 °F 29.9 in SW 14.8 mph 23 mph 98% 0.01 in
04:17 49.8 °F 50 °F 29.9 in SSW 10.3 mph 23 mph 98% 0.01 in
04:22 49.8 °F 50 °F 29.9 in WSW 10.7 mph 22.8 mph 98% 0.01 in
04:27 49.8 °F 50 °F 29.9 in WSW 15.2 mph 18.6 mph 98% 0.01 in
04:32 49.8 °F 50 °F 29.9 in SW 12.5 mph 18.6 mph 98% 0.01 in
04:37 49.8 °F 50 °F 29.9 in WSW 10.3 mph 21.9 mph 98% 0 in
04:42 49.8 °F 50 °F 29.9 in SW 13 mph 21.9 mph 98% 0 in
04:47 49.8 °F 50 °F 29.9 in SSW 15.7 mph 21.9 mph 98% 0 in
04:52 49.8 °F 50 °F 29.9 in SSW 18.8 mph 24.2 mph 98% 0 in
04:57 49.8 °F 50 °F 29.9 in SW 17 mph 24.2 mph 98% 0 in
05:02 49.8 °F 50 °F 29.9 in WSW 12.8 mph 23.5 mph 98% 0 in
05:07 49.8 °F 50 °F 29.9 in WSW 14.5 mph 23.5 mph 98% 0 in
05:12 49.8 °F 50 °F 29.9 in SW 12.8 mph 21.9 mph 98% 0 in
05:18 49.8 °F 50 °F 29.9 in WSW 10.7 mph 21.9 mph 98% 0 in
05:23 49.8 °F 50 °F 29.9 in SW 9.2 mph 17.9 mph 98% 0 in
05:28 49.8 °F 50 °F 29.9 in SSW 9.2 mph 15.2 mph 98% 0 in
05:33 49.8 °F 50 °F 29.9 in SSW 17.4 mph 19.9 mph 98% 0 in
05:38 49.8 °F 50 °F 29.9 in SW 10.1 mph 19.9 mph 98% 0 in
05:43 49.8 °F 50 °F 29.9 in SW 13.2 mph 16.3 mph 98% 0 in
05:48 49.8 °F 50 °F 29.9 in WSW 17.4 mph 22.8 mph 98% 0 in
05:53 49.8 °F 50 °F 29.9 in WSW 18.1 mph 22.8 mph 98% 0 in
05:58 49.8 °F 50 °F 29.9 in WSW 17.2 mph 18.6 mph 98% 0 in
06:03 49.8 °F 50 °F 29.9 in South 17.9 mph 18.1 mph 98% 0 in
06:08 49.8 °F 50 °F 29.9 in WSW 18.6 mph 19.9 mph 98% 0 in
06:13 49.6 °F 50 °F 29.9 in WSW 11 mph 22.1 mph 98% 0 in
06:18 49.6 °F 50 °F 29.8 in WSW 11 mph 22.1 mph 98% 0 in
06:23 49.6 °F 50 °F 29.8 in SW 15.4 mph 22.6 mph 98% 0 in
06:28 49.6 °F 50 °F 29.8 in WSW 13 mph 22.6 mph 98% 0 in
06:33 49.8 °F 50 °F 29.8 in SW 10.3 mph 18.1 mph 98% 0 in
06:38 49.8 °F 50 °F 29.8 in SW 13.2 mph 24.4 mph 98% 0 in
06:43 49.8 °F 50 °F 29.8 in SSW 12.5 mph 24.4 mph 98% 0 in
06:48 49.8 °F 50 °F 29.8 in SSW 19.2 mph 20.4 mph 98% 0 in
06:53 49.8 °F 50 °F 29.8 in WSW 13.2 mph 19.7 mph 98% 0 in
06:58 49.8 °F 50 °F 29.8 in WSW 12.5 mph 17.7 mph 98% 0.01 in
07:03 49.8 °F 50 °F 29.8 in SSW 14.3 mph 17.7 mph 98% 0.01 in
07:08 49.6 °F 50 °F 29.8 in WSW 15.2 mph 17.4 mph 98% 0.01 in
07:13 49.6 °F 50 °F 29.8 in SW 10.3 mph 17.2 mph 98% 0.01 in
07:18 49.6 °F 50 °F 29.8 in WSW 10.7 mph 15.4 mph 98% 0.01 in
07:23 49.6 °F 50 °F 29.8 in SSW 17.7 mph 17.7 mph 98% 0.01 in
07:29 49.6 °F 50 °F 29.8 in SW 18.1 mph 18.1 mph 98% 0.01 in
07:34 49.6 °F 50 °F 29.8 in SW 15.2 mph 19.7 mph 98% 0.01 in
07:39 49.6 °F 50 °F 29.8 in WSW 15.4 mph 19.7 mph 98% 0.01 in
07:44 49.6 °F 50 °F 29.8 in SSW 10.5 mph 22.1 mph 98% 0.01 in
07:49 49.6 °F 50 °F 29.8 in SW 10.1 mph 22.1 mph 98% 0.01 in
07:54 49.6 °F 50 °F 29.8 in WSW 12.3 mph 19.5 mph 98% 0 in
07:59 49.5 °F 50 °F 29.8 in WSW 13.4 mph 17.2 mph 98% 0 in
08:04 49.5 °F 50 °F 29.8 in WSW 12.3 mph 17.7 mph 98% 0 in
08:09 49.5 °F 50 °F 29.8 in SSW 14.8 mph 17.7 mph 98% 0 in
08:14 49.3 °F 50 °F 29.8 in WSW 12.5 mph 17.7 mph 98% 0 in
08:19 49.3 °F 50 °F 29.8 in SW 13 mph 19.7 mph 98% 0.01 in
08:24 49.3 °F 50 °F 29.8 in SW 12.8 mph 19.7 mph 98% 0.01 in
08:29 49.3 °F 50 °F 29.8 in WSW 13.2 mph 19 mph 98% 0.01 in
08:34 49.3 °F 50 °F 29.8 in SSW 14.3 mph 15.4 mph 98% 0.01 in
08:39 49.1 °F 50 °F 29.8 in SSW 7.8 mph 14.8 mph 98% 0.01 in
08:44 49.1 °F 50 °F 29.8 in WSW 12.1 mph 19.5 mph 98% 0.01 in
08:49 49.1 °F 50 °F 29.8 in SSW 9.4 mph 19.5 mph 98% 0.01 in
08:54 48.9 °F 48.2 °F 29.8 in SSW 17.4 mph 17.4 mph 98% 0.01 in
08:56 48.9 °F 48.2 °F 29.8 in WSW 10.3 mph 17.4 mph 98% 0.01 in
09:01 48.9 °F 48.2 °F 29.8 in SW 8.1 mph 17.4 mph 98% 0.01 in
09:06 48.9 °F 48.2 °F 29.8 in WSW 13.6 mph 17.9 mph 98% 0.01 in
09:11 48.9 °F 48.2 °F 29.8 in SSW 10.1 mph 17.9 mph 98% 0.01 in
09:16 48.9 °F 48.2 °F 29.8 in SW 12.3 mph 14.8 mph 98% 0.01 in
09:21 48.9 °F 48.2 °F 29.8 in SSW 10.7 mph 14.8 mph 98% 0 in
09:26 48.9 °F 48.2 °F 29.8 in WSW 8.5 mph 14.5 mph 98% 0 in
09:31 48.9 °F 48.2 °F 29.8 in SW 8.5 mph 16.3 mph 98% 0.01 in
09:36 48.9 °F 48.2 °F 29.8 in WSW 13.9 mph 16.3 mph 98% 0.01 in
09:41 48.9 °F 48.2 °F 29.8 in SW 13 mph 15.4 mph 98% 0.01 in
09:46 48.9 °F 48.2 °F 29.7 in WSW 13.6 mph 14.5 mph 98% 0.03 in
09:51 48.9 °F 48.2 °F 29.7 in WSW 17.2 mph 17.2 mph 98% 0.03 in
09:56 48.9 °F 48.2 °F 29.7 in WSW 13.4 mph 30 mph 98% 0.03 in
10:01 48.9 °F 48.2 °F 29.7 in SW 13.2 mph 30 mph 98% 0.03 in
10:07 48.9 °F 48.2 °F 29.7 in WNW 12.8 mph 15.4 mph 98% 0.03 in
10:12 48.9 °F 48.2 °F 29.7 in WSW 6.9 mph 15.4 mph 98% 0.04 in
10:17 48.9 °F 48.2 °F 29.7 in West 18.6 mph 18.6 mph 98% 0.05 in
10:22 48.6 °F 48.2 °F 29.7 in WSW 22.6 mph 27.1 mph 98% 0.06 in
10:27 48.6 °F 48.2 °F 29.7 in West 15.4 mph 27.1 mph 98% 0.05 in
10:32 48.6 °F 48.2 °F 29.7 in WSW 15.4 mph 20.8 mph 98% 0.05 in
10:37 48.6 °F 48.2 °F 29.7 in WSW 23 mph 23 mph 98% 0.05 in
10:42 48.6 °F 48.2 °F 29.7 in WSW 19.9 mph 23 mph 98% 0.05 in
10:47 48.6 °F 48.2 °F 29.7 in WSW 13.6 mph 23 mph 98% 0.03 in
10:52 48.7 °F 48.2 °F 29.7 in WSW 17.4 mph 19.9 mph 98% 0.03 in
10:57 48.7 °F 48.2 °F 29.7 in WSW 12.8 mph 22.1 mph 98% 0.03 in
11:02 48.7 °F 48.2 °F 29.7 in WSW 13 mph 22.1 mph 98% 0.03 in
11:07 48.7 °F 48.2 °F 29.7 in WSW 19.5 mph 19.9 mph 98% 0.03 in
11:12 48.7 °F 48.2 °F 29.7 in WSW 15.9 mph 19.5 mph 98% 0.03 in
11:17 48.7 °F 48.2 °F 29.7 in SW 17.7 mph 19.5 mph 98% 0.02 in
11:22 48.6 °F 48.2 °F 29.7 in WSW 13.9 mph 25.9 mph 98% 0.01 in
11:27 48.4 °F 48.2 °F 29.7 in WSW 33.3 mph 33.3 mph 98% 0.02 in
11:32 48.2 °F 48.2 °F 29.7 in WSW 33.3 mph 33.3 mph 98% 0.04 in
11:37 48 °F 48.2 °F 29.7 in West 23.7 mph 33.3 mph 98% 0.04 in
11:42 48 °F 48.2 °F 29.7 in West 23.7 mph 33.3 mph 98% 0.05 in
11:47 47.8 °F 48.2 °F 29.7 in West 14.3 mph 23.7 mph 98% 0.05 in
11:52 47.8 °F 48.2 °F 29.7 in WSW 15.2 mph 23.7 mph 98% 0.06 in
11:57 47.8 °F 48.2 °F 29.7 in West 26.4 mph 26.4 mph 98% 0.07 in
12:02 47.8 °F 48.2 °F 29.7 in WSW 23.5 mph 28.4 mph 98% 0.09 in
12:07 47.7 °F 48.2 °F 29.7 in WSW 13.4 mph 28.4 mph 98% 0.1 in
12:12 47.5 °F 48.2 °F 29.7 in West 16.3 mph 24.4 mph 98% 0.09 in
12:17 47.5 °F 48.2 °F 29.7 in WSW 15.9 mph 21 mph 98% 0.1 in
12:22 47.5 °F 48.2 °F 29.7 in WSW 19.2 mph 19.5 mph 98% 0.11 in
12:27 47.5 °F 48.2 °F 29.7 in WSW 17.7 mph 21.9 mph 98% 0.1 in
12:32 47.3 °F 48.2 °F 29.7 in WSW 22.4 mph 24.4 mph 98% 0.1 in
12:38 47.3 °F 48.2 °F 29.7 in WSW 22.4 mph 24.4 mph 98% 0.1 in
12:43 47.3 °F 48.2 °F 29.7 in WSW 22.4 mph 22.4 mph 98% 0.1 in
12:48 46.9 °F 48.2 °F 29.7 in WSW 22.4 mph 22.4 mph 98% 0.1 in
12:53 46.9 °F 46.4 °F 29.7 in WSW 22.4 mph 22.4 mph 97% 0.09 in
12:58 46.8 °F 46.4 °F 29.7 in WSW 22.4 mph 22.4 mph 98% 0.09 in
13:03 46.8 °F 46.4 °F 29.6 in WSW 22.4 mph 22.4 mph 98% 0.07 in
13:08 46.8 °F 46.4 °F 29.6 in WSW 22.4 mph 22.4 mph 98% 0.06 in
13:13 46.6 °F 46.4 °F 29.6 in WSW 22.4 mph 22.4 mph 98% 0.07 in
13:18 46.6 °F 46.4 °F 29.7 in WSW 22.4 mph 22.4 mph 98% 0.06 in
13:23 46.6 °F 46.4 °F 29.7 in WSW 22.4 mph 22.4 mph 98% 0.05 in
13:28 46.6 °F 46.4 °F 29.7 in WSW 22.4 mph 22.4 mph 98% 0.05 in
13:33 46.6 °F 46.4 °F 29.7 in WSW 22.4 mph 22.4 mph 98% 0.03 in
13:38 46.6 °F 46.4 °F 29.7 in WSW 22.4 mph 22.4 mph 97% 0.03 in
13:43 46.6 °F 46.4 °F 29.7 in WSW 22.4 mph 22.4 mph 96% 0.02 in
13:48 46.6 °F 46.4 °F 29.6 in WSW 22.4 mph 22.4 mph 96% 0.02 in
13:53 46.6 °F 46.4 °F 29.6 in WSW 22.4 mph 22.4 mph 95% 0.02 in
13:58 46.6 °F 44.6 °F 29.6 in WSW 22.4 mph 22.4 mph 94% 0.01 in
14:03 46.6 °F 44.6 °F 29.6 in WSW 22.4 mph 22.4 mph 94% 0.01 in
14:08 46.6 °F 44.6 °F 29.6 in WSW 22.4 mph 22.4 mph 92% 0.01 in
14:13 46.8 °F 44.6 °F 29.6 in WSW 22.4 mph 22.4 mph 91% 0 in
14:18 46.9 °F 44.6 °F 29.6 in WSW 22.4 mph 22.4 mph 90% 0 in
14:23 46.9 °F 44.6 °F 29.6 in WSW 22.4 mph 22.4 mph 90% 0 in
14:26 46.9 °F 44.6 °F 29.6 in WSW 22.4 mph 22.4 mph 89% 0 in
14:31 46.9 °F 44.6 °F 29.6 in WSW 10.1 mph 10.1 mph 88% 0 in
14:36 46.9 °F 44.6 °F 29.6 in WSW 10.1 mph 10.1 mph 87% 0 in
14:41 46.9 °F 42.8 °F 29.6 in WSW 10.1 mph 10.1 mph 86% 0 in
14:46 46.9 °F 42.8 °F 29.6 in WSW 10.1 mph 10.1 mph 86% 0 in
14:51 47.1 °F 42.8 °F 29.6 in WSW 11.9 mph 11.9 mph 86% 0 in
14:57 47.1 °F 42.8 °F 29.6 in WSW 11.9 mph 11.9 mph 85% 0 in
15:02 47.3 °F 44.6 °F 29.6 in WSW 11.9 mph 11.9 mph 86% 0 in
15:07 47.3 °F 44.6 °F 29.6 in WSW 11.9 mph 11.9 mph 86% 0 in
15:12 47.3 °F 44.6 °F 29.6 in WSW 11.9 mph 11.9 mph 86% 0 in
15:17 47.7 °F 44.6 °F 29.6 in WSW 11.9 mph 11.9 mph 86% 0 in
15:22 47.8 °F 44.6 °F 29.6 in WSW 11.9 mph 11.9 mph 86% 0 in
15:27 47.8 °F 44.6 °F 29.6 in WSW 11.9 mph 11.9 mph 86% 0 in
15:32 47.8 °F 44.6 °F 29.6 in WSW 11.9 mph 11.9 mph 86% 0 in
15:37 47.7 °F 44.6 °F 29.6 in WSW 11.9 mph 11.9 mph 87% 0 in
15:42 47.5 °F 44.6 °F 29.6 in WSW 11.9 mph 11.9 mph 88% 0 in
15:47 47.1 °F 44.6 °F 29.6 in WSW 11.9 mph 11.9 mph 90% 0.01 in
15:52 46.8 °F 44.6 °F 29.6 in WSW 12.1 mph 15.4 mph 92% 0.02 in
15:57 46.6 °F 44.6 °F 29.6 in WSW 12.1 mph 15.4 mph 94% 0.03 in
16:02 46.6 °F 44.6 °F 29.6 in West 11 mph 21.9 mph 94% 0.05 in
16:07 46.4 °F 46.4 °F 29.6 in West 11 mph 21.9 mph 95% 0.05 in
16:12 46.2 °F 44.6 °F 29.6 in West 11 mph 11 mph 95% 0.05 in
16:17 45.9 °F 44.6 °F 29.6 in West 11 mph 11 mph 95% 0.05 in
16:23 45.3 °F 44.6 °F 29.6 in West 11 mph 11 mph 95% 0.05 in
16:28 45.1 °F 42.8 °F 29.6 in West 11 mph 11 mph 94% 0.05 in
16:33 44.8 °F 42.8 °F 29.6 in West 11 mph 11 mph 94% 0.05 in
16:38 44.4 °F 42.8 °F 29.6 in North 2.9 mph 2.9 mph 95% 0.05 in
16:43 44.2 °F 42.8 °F 29.6 in North 2.9 mph 2.9 mph 95% 0.05 in
16:48 44.2 °F 42.8 °F 29.6 in North 2.9 mph 2.9 mph 95% 0.04 in
16:53 44.1 °F 42.8 °F 29.6 in North 2.9 mph 2.9 mph 95% 0.03 in
16:58 43.9 °F 42.8 °F 29.6 in North 2.9 mph 2.9 mph 95% 0.01 in
17:03 43.7 °F 42.8 °F 29.6 in North 2.9 mph 2.9 mph 95% 0 in
17:08 43.5 °F 42.8 °F 29.6 in North 2.9 mph 2.9 mph 96% 0 in
17:13 43.5 °F 42.8 °F 29.6 in North 2.9 mph 2.9 mph 96% 0 in
17:18 43.5 °F 42.8 °F 29.6 in North 2.9 mph 2.9 mph 96% 0 in
17:23 43.3 °F 42.8 °F 29.6 in North 2.9 mph 2.9 mph 96% 0 in
17:28 43.2 °F 42.8 °F 29.6 in North 2.9 mph 2.9 mph 97% 0 in
17:33 43 °F 42.8 °F 29.6 in SW 2.7 mph 5.8 mph 97% 0 in
17:38 42.6 °F 42.8 °F 29.6 in WSW 3.8 mph 5.8 mph 97% 0 in
17:43 42.6 °F 42.8 °F 29.6 in WSW 5.4 mph 7.2 mph 97% 0 in
17:48 42.4 °F 42.8 °F 29.6 in Calm   7.2 mph 97% 0 in
17:53 42.4 °F 42.8 °F 29.6 in Calm   6.3 mph 98% 0 in
17:55 42.4 °F 42.8 °F 29.6 in WSW 7.2 mph 7.2 mph 98% 0 in
18:00 42.4 °F 42.8 °F 29.6 in WSW 6 mph 8.7 mph 98% 0 in
18:05 42.4 °F 42.8 °F 29.6 in WSW 6.7 mph 8.7 mph 98% 0 in
18:10 42.4 °F 42.8 °F 29.6 in WSW 7.4 mph 8.1 mph 98% 0 in
18:15 42.4 °F 42.8 °F 29.6 in WSW 6.5 mph 8.5 mph 98% 0 in
18:20 42.4 °F 42.8 °F 29.6 in WSW 6.3 mph 9.8 mph 98% 0 in
18:25 42.4 °F 42.8 °F 29.6 in WSW 8.7 mph 9.8 mph 98% 0 in
18:30 42.6 °F 42.8 °F 29.6 in WSW 7.2 mph 8.7 mph 98% 0 in
18:35 42.8 °F 42.8 °F 29.6 in SW 7.4 mph 9.8 mph 98% 0 in
18:40 42.8 °F 42.8 °F 29.6 in West 10.3 mph 13 mph 98% 0 in
18:45 43.2 °F 42.8 °F 29.6 in West 10.1 mph 14.5 mph 98% 0 in
18:50 43.2 °F 42.8 °F 29.6 in West 10.7 mph 14.5 mph 98% 0 in
18:55 43.3 °F 42.8 °F 29.6 in West 8.7 mph 17.2 mph 96% 0 in
19:00 43.3 °F 41 °F 29.6 in West 13 mph 17.2 mph 92% 0 in
19:05 43.2 °F 41 °F 29.6 in West 9.8 mph 15.9 mph 91% 0 in
19:10 43.2 °F 41 °F 29.6 in West 10.7 mph 15.9 mph 88% 0 in
19:15 43 °F 39.2 °F 29.6 in West 10.3 mph 15.4 mph 86% 0 in
19:20 43 °F 39.2 °F 29.6 in West 7.6 mph 12.5 mph 85% 0 in
19:25 42.6 °F 39.2 °F 29.6 in West 8.1 mph 12.5 mph 85% 0 in
19:30 42.4 °F 39.2 °F 29.6 in West 7.4 mph 12.5 mph 84% 0 in
19:35 42.4 °F 37.4 °F 29.6 in West 5.8 mph 12.5 mph 82% 0 in
19:40 42.4 °F 37.4 °F 29.6 in West 7.8 mph 12.5 mph 82% 0 in
19:45 42.4 °F 37.4 °F 29.6 in West 7.8 mph 12.5 mph 82% 0 in
19:50 42.3 °F 37.4 °F 29.6 in West 5.4 mph 10.5 mph 82% 0 in
19:56 42.3 °F 37.4 °F 29.6 in West 8.5 mph 11 mph 82% 0 in
20:01 42.1 °F 37.4 °F 29.6 in West 3.6 mph 11 mph 82% 0 in
20:06 41.7 °F 37.4 °F 29.6 in West 0.9 mph 10.7 mph 83% 0 in
20:11 41.4 °F 37.4 °F 29.6 in Calm   6.5 mph 83% 0 in
20:16 41.2 °F 37.4 °F 29.6 in WSW 3.6 mph 5.4 mph 83% 0 in
20:21 41.2 °F 37.4 °F 29.6 in West 3.6 mph 7.8 mph 82% 0 in
20:26 41 °F 37.4 °F 29.6 in WSW 3.6 mph 7.8 mph 82% 0 in
20:31 40.8 °F 35.6 °F 29.6 in West 5.4 mph 7.6 mph 82% 0 in
20:36 40.5 °F 35.6 °F 29.6 in West 5.6 mph 6.5 mph 81% 0 in
20:41 39.9 °F 33.8 °F 29.6 in Calm   6.5 mph 81% 0 in
20:46 39.6 °F 33.8 °F 29.6 in Calm   4.9 mph 81% 0 in
20:51 39 °F 33.8 °F 29.6 in Calm   4 mph 82% 0 in
20:56 38.7 °F 33.8 °F 29.6 in Calm   4.3 mph 82% 0 in
21:01 38.3 °F 33.8 °F 29.6 in Calm   4.3 mph 83% 0 in
21:06 38.1 °F 33.8 °F 29.6 in Calm   4.3 mph 83% 0 in
21:11 37.8 °F 33.8 °F 29.6 in WSW 4.7 mph 4.7 mph 84% 0 in
21:16 37.4 °F 33.8 °F 29.6 in Calm   5.6 mph 84% 0 in
21:21 37.4 °F 33.8 °F 29.6 in West 4.9 mph 5.6 mph 85% 0 in
21:26 37.4 °F 33.8 °F 29.6 in West 4.9 mph 6.3 mph 85% 0 in
21:31 37.6 °F 33.8 °F 29.6 in West 4.9 mph 6.5 mph 86% 0 in
21:36 37.9 °F 35.6 °F 29.6 in West 0.9 mph 8.7 mph 87% 0 in
21:42 37.9 °F 35.6 °F 29.6 in WNW 6 mph 8.7 mph 87% 0 in
21:47 38.1 °F 35.6 °F 29.6 in West 4 mph 8.1 mph 87% 0 in
21:52 38.1 °F 35.6 °F 29.6 in WNW 2.5 mph 7.6 mph 87% 0 in
21:57 37.9 °F 33.8 °F 29.6 in Calm   5.8 mph 86% 0 in
22:02 37.6 °F 33.8 °F 29.6 in Calm   5.8 mph 86% 0 in
22:07 37.4 °F 33.8 °F 29.6 in Calm   4.7 mph 86% 0 in
22:12 37 °F 33.8 °F 29.6 in Calm   4.3 mph 86% 0 in
22:17 36.9 °F 33.8 °F 29.6 in Calm   3.8 mph 87% 0 in
22:22 36.7 °F 33.8 °F 29.6 in Calm   2.2 mph 87% 0 in
22:27 36.3 °F 33.8 °F 29.6 in Calm   1.3 mph 87% 0 in
22:32 36.1 °F 33.8 °F 29.6 in Calm   1.3 mph 87% 0 in
22:37 35.6 °F 33.8 °F 29.6 in Calm     87% 0 in
22:42 35.2 °F 32 °F 29.6 in Calm     87% 0 in
22:47 35.2 °F 32 °F 29.6 in Calm     88% 0 in
22:52 35.6 °F 33.8 °F 29.6 in Calm   5.4 mph 89% 0 in
22:57 35.6 °F 33.8 °F 29.6 in Calm   5.4 mph 89% 0 in
23:02 35.8 °F 33.8 °F 29.6 in WSW 3.8 mph 5.6 mph 90% 0 in
23:07 35.8 °F 33.8 °F 29.6 in WSW 6.3 mph 6.3 mph 90% 0 in
23:12 36 °F 33.8 °F 29.6 in WSW 4.7 mph 6.7 mph 91% 0 in
23:17 36.1 °F 33.8 °F 29.6 in WSW 6.3 mph 6.7 mph 91% 0 in
23:22 36.1 °F 33.8 °F 29.6 in Calm   6.3 mph 91% 0 in
23:27 36 °F 33.8 °F 29.6 in Calm   5.4 mph 91% 0 in
23:32 35.8 °F 33.8 °F 29.6 in Calm     91% 0 in
23:37 35.8 °F 33.8 °F 29.6 in WSW 4.3 mph 6.3 mph 91% 0 in
23:42 35.8 °F 33.8 °F 29.6 in Calm   6.3 mph 91% 0 in
23:47 35.8 °F 33.8 °F 29.6 in Calm   6.3 mph 92% 0 in
23:53 36 °F 33.8 °F 29.6 in West 4.9 mph 6.3 mph 92% 0 in
23:58 36 °F 33.8 °F 29.6 in West 3.1 mph 5.4 mph 92% 0 in
Données Historique de Météo Turbie

Mise a jour : 22/05/2018 19:56:12
Généré par Cumulus 1.9.4 (1099)